This is the latest recevied weather packets stored in our database for station/object KSL2-WX. If no packets are shown the sender has not sent any weather packets the latest 10 day(s).
| Time | Temp. | Humidity | Pressure | Rain* | Wind** | Luminosity | Snow |
|---|---|---|---|---|---|---|---|
| 1788531440 | 20° C | 71% | 1014 hPa | - | - | - | - |
| 1788527839 | 20° C | 69% | 1014 hPa | - | - | - | - |
| 1788524239 | 21.67° C | 57% | 1013.5 hPa | - | - | - | - |
| 1788520640 | 25.56° C | 40% | 1011.9 hPa | - | - | - | - |
| 1788517039 | 26.11° C | 40% | 1011.9 hPa | - | - | - | - |
| 1788513439 | 25° C | 43% | 1012.3 hPa | - | - | - | - |
| 1788509839 | 24.44° C | 46% | 1012.5 hPa | - | - | - | - |
| 1788506239 | 23.33° C | 50% | 1013.3 hPa | - | - | - | - |
| 1788502639 | 22.22° C | 54% | 1013.7 hPa | - | - | - | - |
| 1788499040 | 20° C | 61% | 1014.3 hPa | - | - | - | - |
| 1788495439 | 15.56° C | 79% | 1014.8 hPa | - | - | - | - |
| 1788491839 | 12.78° C | 89% | 1015.3 hPa | - | - | - | - |
| 1788488239 | 12.22° C | 92% | 1015.2 hPa | - | - | - | - |
| 1788484639 | 12.78° C | 93% | 1015.5 hPa | - | - | - | - |
| 1788481039 | 13.33° C | 92% | 1015.2 hPa | - | - | - | - |
| 1788477438 | 13.33° C | 92% | 1015.3 hPa | - | - | - | - |
| 1788473839 | 14.44° C | 87% | 1015.3 hPa | - | - | - | - |
| 1788470239 | 16.11° C | 76% | 1014.6 hPa | - | - | - | - |
| 1788466639 | 17.22° C | 68% | 1014.9 hPa | - | - | - | - |
| 1788463066 | 17.78° C | 65% | 1015.3 hPa | - | - | - | - |
| 1788459440 | 18.33° C | 63% | 1015.8 hPa | - | - | - | - |
| 1788452253 | 20° C | 53% | 1015.1 hPa | - | - | - | - |
| 1788441439 | 24.44° C | 42% | 1014.4 hPa | - | - | - | - |
| 1788437839 | 25° C | 43% | 1014.5 hPa | - | - | - | - |
| 1788434239 | 25° C | 45% | 1014.7 hPa | - | - | - | - |
* Rain since midnight (hover to see other rain measurements)
** Current wind speed in m/s (hover to see current wind gust speed)